User: anonymous   Login
Location: Forst
(46.9333°N, 15.4333°E)
Time: 04:37:22
(UTC+00:00)
Language:

FENGYUN 1C DEB - Orbit

View from above orbital plane
View from above orbital plane
View from above satellite
View from above satellite

Ground track
Ground track

The orbit data is extracted from the following two-line orbital elements,

1 31938U 99025CMP 21164.29473284  .00000441  00000-0  55695-4 0  9995
2 31938  98.9572 347.1701 0208555 226.8126 131.5492 14.74410446747975
Epoch (UTC): 13 June 2021 07:04:24
Eccentricity: 0.0208555
inclination: 98.9572°
perigee height: 500 km
apogee height: 793 km
right ascension of ascending node: 347.1701°
argument of perigee: 226.8126°
revolutions per day: 14.74410446
mean anomaly at epoch: 131.5492°
orbit number at epoch: 74797

The dashed part of the orbit path shows where the satellite is in the earth's shadow,  

DLR